MDT,Max TemperatureF,Mean TemperatureF,Min TemperatureF,Max Dew PointF,MeanDew PointF,Min DewpointF,Max Humidity, Mean Humidity, Min Humidity, Max Sea Level PressureIn, Mean Sea Level PressureIn, Min Sea Level PressureIn, Max VisibilityMiles, Mean VisibilityMiles, Min VisibilityMiles, Max Wind SpeedMPH, Mean Wind SpeedMPH, Max Gust SpeedMPH,PrecipitationIn, CloudCover, Events, WindDirDegrees
2013-10-1,83,66,49,32,27,20,50,30,10,29.94,29.87,29.81,10,10,10,10,3,15,0.00,0,,170
2013-10-2,79,64,49,32,28,22,44,28,12,29.97,29.87,29.81,10,10,10,13,4,16,0.00,0,,157
2013-10-3,77,65,52,36,31,26,46,31,16,29.87,29.77,29.63,10,10,10,20,7,26,0.00,0,,174
2013-10-4,64,57,49,32,20,8,41,27,13,30.07,29.90,29.71,10,10,10,26,16,33,0.00,1,,326
2013-10-5,62,51,40,22,18,12,45,30,14,30.26,30.18,30.09,10,10,10,20,10,24,0.00,1,,340
2013-10-6,68,54,39,24,21,18,48,32,15,30.30,30.21,30.15,10,10,10,8,4,12,0.00,0,,61
2013-10-7,74,58,42,25,22,20,40,27,13,30.23,30.11,30.00,10,10,10,13,5,16,0.00,1,,108
2013-10-8,78,64,50,30,28,25,39,27,15,29.99,29.87,29.73,10,10,10,21,7,25,0.00,2,,169
2013-10-9,75,63,50,36,31,25,44,31,17,29.86,29.78,29.73,10,10,10,24,8,32,0.00,1,,169
2013-10-10,71,59,46,45,35,26,66,46,26,29.90,29.76,29.62,10,9,5,45,17,60,0.04,3,Rain-Thunderstorm,220
2013-10-11,63,51,38,32,30,27,70,49,27,30.03,29.98,29.92,10,10,10,17,5,21,0.00,0,,311
2013-10-12,69,55,41,35,33,30,70,47,23,30.13,30.04,29.95,10,10,10,24,7,29,0.00,0,,39
2013-10-13,78,65,52,43,37,31,54,36,18,30.06,29.94,29.81,10,10,10,31,12,37,0.00,2,,137
2013-10-14,69,60,50,43,27,16,61,38,14,30.07,29.92,29.85,10,10,10,25,9,31,0.00,2,,301
2013-10-15,66,54,42,32,26,20,54,40,26,30.14,29.95,29.85,10,10,10,36,17,44,T,2,Rain,77
2013-10-16,62,53,43,33,27,13,62,40,17,30.10,30.03,29.93,10,10,10,31,12,39,0.00,3,,41
2013-10-17,64,50,36,21,18,15,44,30,16,30.12,30.01,29.90,10,10,10,13,5,18,0.00,0,,348
2013-10-18,64,51,37,25,17,10,48,31,14,30.12,29.99,29.90,10,10,10,24,8,30,0.00,0,,350
2013-10-19,63,49,35,28,22,16,75,46,16,30.20,30.10,30.00,10,10,10,10,4,15,0.00,0,,332
2013-10-20,70,53,36,24,16,11,48,29,10,30.01,29.91,29.80,10,10,10,20,4,24,0.00,1,,305
2013-10-21,64,54,43,31,27,22,53,38,22,30.13,30.03,29.90,10,10,10,25,8,31,0.00,1,,58
2013-10-22,69,54,39,27,22,9,55,32,9,30.25,30.15,30.08,10,10,10,8,3,10,0.00,0,,51
2013-10-23,70,56,42,27,23,19,39,28,17,30.19,30.09,30.00,10,10,10,12,4,14,0.00,2,,63
2013-10-24,73,59,45,48,31,25,83,51,19,30.26,30.08,29.98,10,10,6,29,6,38,0.04,5,Rain,330
2013-10-25,65,56,46,47,44,38,86,65,44,30.31,30.14,30.03,10,10,10,26,8,33,0.08,6,Rain-Thunderstorm,15
2013-10-26,67,54,41,41,38,34,83,59,34,30.27,30.20,30.13,10,10,10,9,3,12,0.00,3,,74
2013-10-27,67,56,44,39,35,30,76,51,26,30.17,30.01,29.84,10,10,10,14,6,16,0.00,2,,134
2013-10-28,69,58,47,39,30,18,66,42,17,29.89,29.81,29.74,10,10,10,22,8,28,0.00,6,,175
2013-10-29,69,59,48,25,24,20,39,28,17,29.95,29.82,29.71,10,10,10,36,14,44,0.00,4,,176
2013-10-30,61,51,41,35,30,25,61,45,28,29.94,29.85,29.70,10,10,10,30,9,38,T,5,,258
2013-10-31,57,44,31,29,25,21,70,48,26,30.11,30.02,29.95,10,10,10,24,11,30,0.00,1,,2